Location: Caltech
(34.1382°N, 118.1253°W)
Time: 19:41:40
(UTC-07:00)

BREEZE M DEB (TANK) - Visible Passes

Search period start: 23 April 2014 00:00
Search period end: 03 May 2014 00:00
Orbit: 326 x 13867 km, 49.5° (Epoch: 22 April)

Date Brightness Start Highest point End Pass type
(mag) Time Alt. Az. Time Alt. Az. Time Alt. Az.
23 Apr 8.3 03:03:00 10° WNW 03:48:40 69° NNE 05:55:44 10° SE visible
23 Apr 6.3 20:06:01 10° SE 20:12:52 22° E 20:30:09 10° NE visible
24 Apr 7.6 00:30:56 10° W 00:48:14 64° NNW 02:43:32 10° E visible
24 Apr 8.8 05:09:55 10° NW 06:26:41 85° WSW 08:05:54 10° SSE visible
24 Apr 6.1 22:02:25 10° SW 22:11:06 79° SE 23:02:14 10° NE visible
25 Apr 8.2 02:35:22 10° WNW 03:15:27 67° NNE 05:25:32 10° ESE visible
25 Apr 6.4 19:40:19 10° SE 19:46:19 17° E 19:58:45 10° ENE visible
26 Apr 7.5 00:03:41 10° W 00:19:10 65° NNW 02:06:01 10° E visible
26 Apr 8.7 04:41:45 10° NW 05:54:15 88° WSW 07:37:48 10° SSE visible
26 Apr 6.0 21:35:34 10° SSW 21:43:39 72° SE 22:28:26 10° NE visible
27 Apr 8.2 02:07:42 10° WNW 02:42:50 65° NNE 04:54:39 10° ESE visible
27 Apr 7.4 23:36:22 10° W 23:50:15 66° NNW 01:27:28 10° ENE visible
28 Apr 8.7 04:13:35 10° NW 05:21:21 88° NE 07:09:22 10° SSE visible
28 Apr 5.9 21:08:38 10° SSW 21:16:13 64° ESE 21:55:15 10° NE visible
29 Apr 8.1 01:39:58 10° WNW 02:10:48 64° NNE 04:22:58 10° ESE visible
29 Apr 7.2 23:08:59 10° WSW 23:21:28 68° NNW 00:48:24 10° ENE visible
30 Apr 8.6 03:45:24 10° WNW 04:48:03 84° NE 06:40:35 10° SSE visible
30 Apr 5.8 20:41:39 10° SSW 20:48:49 57° ESE 21:22:37 10° NE visible
01 May 8.1 01:12:11 10° WNW 01:39:17 62° N 03:50:22 10° ESE visible
01 May 7.0 22:41:32 10° WSW 22:52:47 70° NNW 00:09:27 10° ENE visible
02 May 8.6 03:17:10 10° WNW 04:14:26 81° NE 06:11:23 10° SE visible
02 May 5.8 20:14:38 10° S 20:21:25 49° ESE 20:50:26 10° NE visible
